• In Hungary
  • List of Countries
  • For 7 days
  • Water Temperature
  • Satellite Maps
  • Weather Map
  • News
  • Weather Widgets
  • user-avatar
    Login

    Hourly Weather Znamirowice

    Today, 17 November, Friday

    Time Temperature Precipitation Wind Pressure Humidity
    00:00 +3°C° 0 mm 1 mps 741 mmHg 84%
    01:00 +3°C° 0 mm 1 mps 740 mmHg 84%
    02:00 +3°C° 0 mm 1 mps 740 mmHg 83%
    03:00 +3°C° 0 mm 0 mps 740 mmHg 82%
    04:00 +3°C° 0 mm 0 mps 740 mmHg 81%
    05:00 +3°C° 0.2 mm 0 mps 740 mmHg 83%
    06:00 +3°C° 0.2 mm 0 mps 740 mmHg 85%
    07:00 +3°C° 0 mm 0 mps 740 mmHg 88%
    08:00 +4°C° 0.3 mm 0 mps 740 mmHg 87%
    09:00 +4°C° 0.3 mm 0 mps 740 mmHg 86%
    10:00 +6°C° 0.3 mm 1 mps 740 mmHg 86%
    11:00 +6°C° 0.3 mm 1 mps 740 mmHg 86%
    12:00 +6°C° 0.3 mm 1 mps 740 mmHg 85%
    13:00 +6°C° 0 mm 1 mps 740 mmHg 86%
    14:00 +6°C° 0.3 mm 1 mps 740 mmHg 88%
    15:00 +5°C° 0.3 mm 1 mps 740 mmHg 90%
    16:00 +5°C° 0.3 mm 1 mps 739 mmHg 92%
    17:00 +5°C° 0.2 mm 1 mps 739 mmHg 92%
    18:00 +5°C° 0.2 mm 1 mps 739 mmHg 93%
    19:00 +4°C° 0.2 mm 1 mps 739 mmHg 93%
    20:00 +4°C° 0.2 mm 1 mps 739 mmHg 93%
    21:00 +4°C° 0.2 mm 1 mps 739 mmHg 94%
    22:00 +4°C° 0.2 mm 1 mps 739 mmHg 94%
    23:00 +4°C° 0.2 mm 1 mps 739 mmHg 94%

    Tomorrow, 18 November, Saturday

    Time Temperature Precipitation Wind Pressure Humidity
    00:00 +4°C° 0.2 mm 1 mps 739 mmHg 94%
    01:00 +4°C° 0.2 mm 1 mps 739 mmHg 94%
    02:00 +4°C° 0.2 mm 1 mps 739 mmHg 95%
    03:00 +4°C° 0.2 mm 1 mps 738 mmHg 95%
    04:00 +4°C° 0.2 mm 1 mps 738 mmHg 96%
    05:00 +4°C° 0.2 mm 1 mps 738 mmHg 96%
    06:00 +4°C° 0.2 mm 1 mps 738 mmHg 96%
    07:00 +4°C° 0.2 mm 1 mps 738 mmHg 95%
    08:00 +4°C° 0.1 mm 1 mps 738 mmHg 93%
    09:00 +5°C° 0.1 mm 1 mps 737 mmHg 90%
    10:00 +5°C° 0.1 mm 1 mps 737 mmHg 88%
    11:00 +5°C° 0 mm 1 mps 737 mmHg 85%
    12:00 +5°C° 0 mm 1 mps 737 mmHg 83%
    13:00 +6°C° 0 mm 1 mps 736 mmHg 80%
    14:00 +5°C° 0 mm 1 mps 736 mmHg 82%
    15:00 +5°C° 0 mm 1 mps 735 mmHg 83%
    16:00 +4°C° 0 mm 1 mps 735 mmHg 85%
    17:00 +4°C° 0 mm 1 mps 735 mmHg 86%
    18:00 +3°C° 0 mm 1 mps 734 mmHg 87%
    19:00 +2°C° 0 mm 2 mps 734 mmHg 89%
    20:00 +1°C° 0 mm 2 mps 734 mmHg 88%
    21:00 +1°C° 0 mm 2 mps 733 mmHg 87%
    22:00 +1°C° 0 mm 2 mps 733 mmHg 86%
    23:00 +1°C° 0 mm 2 mps 733 mmHg 85%

    Day after tomorrow, 19 November, Sunday

    Time Temperature Precipitation Wind Pressure Humidity
    00:00 0°C° 0 mm 3 mps 732 mmHg 85%
    01:00 0°C° 0 mm 3 mps 732 mmHg 84%
    02:00 0°C° 0 mm 3 mps 732 mmHg 85%
    03:00 0°C° 0 mm 3 mps 731 mmHg 86%
    04:00 0°C° 0 mm 3 mps 731 mmHg 86%
    05:00 0°C° 0 mm 3 mps 731 mmHg 87%
    06:00 0°C° 0 mm 3 mps 731 mmHg 88%
    07:00 0°C° 0 mm 3 mps 731 mmHg 89%
    08:00 +1°C° 0 mm 3 mps 731 mmHg 84%
    09:00 +1°C° 0 mm 4 mps 731 mmHg 78%
    10:00 +3°C° 0 mm 4 mps 731 mmHg 73%
    11:00 +3°C° 0 mm 4 mps 731 mmHg 70%
    12:00 +4°C° 0 mm 4 mps 731 mmHg 67%
    13:00 +4°C° 0 mm 4 mps 731 mmHg 65%
    14:00 +3°C° 0 mm 4 mps 731 mmHg 70%
    15:00 +2°C° 0 mm 3 mps 731 mmHg 74%
    16:00 +1°C° 0 mm 3 mps 731 mmHg 79%
    17:00 0°C° 0 mm 3 mps 730 mmHg 80%
    18:00 0°C° 0 mm 3 mps 730 mmHg 81%
    19:00 0°C° 0 mm 3 mps 730 mmHg 81%
    20:00 -1°C° 0.3 mm 4 mps 730 mmHg 82%
    21:00 0°C° 0.3 mm 4 mps 731 mmHg 83%
    22:00 0°C° 0.3 mm 4 mps 731 mmHg 83%
    23:00 0°C° 0.1 mm 4 mps 731 mmHg 84%

    20 November, Monday

    Time Temperature Precipitation Wind Pressure Humidity
    00:00 -1°C° 0.1 mm 4 mps 731 mmHg 86%
    01:00 -2°C° 0.1 mm 4 mps 731 mmHg 87%
    02:00 -2°C° 0 mm 4 mps 731 mmHg 86%
    03:00 -2°C° 0 mm 4 mps 731 mmHg 86%
    04:00 -2°C° 0 mm 4 mps 731 mmHg 86%
    05:00 -2°C° 0.1 mm 4 mps 731 mmHg 85%
    06:00 -1°C° 0.1 mm 5 mps 732 mmHg 84%
    07:00 -1°C° 0.1 mm 5 mps 732 mmHg 83%
    08:00 0°C° 0.1 mm 5 mps 732 mmHg 80%
    09:00 +1°C° 0.1 mm 6 mps 732 mmHg 78%
    10:00 +1°C° 0.1 mm 6 mps 733 mmHg 75%
    11:00 +1°C° 0.1 mm 6 mps 733 mmHg 75%
    12:00 +2°C° 0.1 mm 6 mps 733 mmHg 74%
    13:00 +2°C° 0.1 mm 5 mps 733 mmHg 74%
    14:00 +1°C° 0.1 mm 4 mps 733 mmHg 78%
    15:00 0°C° 0.1 mm 4 mps 733 mmHg 81%
    16:00 +1°C° 0.1 mm 3 mps 734 mmHg 85%
    17:00 +1°C° 0.1 mm 3 mps 734 mmHg 86%
    18:00 +1°C° 0.1 mm 2 mps 734 mmHg 87%
    19:00 +1°C° 0.1 mm 2 mps 734 mmHg 88%
    20:00 +1°C° 0.1 mm 2 mps 733 mmHg 88%
    21:00 +2°C° 0.1 mm 2 mps 733 mmHg 88%
    22:00 +2°C° 0.1 mm 2 mps 733 mmHg 87%
    23:00 +2°C° 0.1 mm 2 mps 732 mmHg 87%

    21 November, Tuesday

    Time Temperature Precipitation Wind Pressure Humidity
    00:00 +1°C° 0.1 mm 3 mps 732 mmHg 87%
    01:00 +1°C° 0.1 mm 3 mps 731 mmHg 86%
    02:00 +1°C° 0.3 mm 3 mps 730 mmHg 86%
    03:00 +1°C° 0.3 mm 3 mps 730 mmHg 86%
    04:00 +1°C° 0.3 mm 4 mps 729 mmHg 86%
    05:00 +1°C° 0.3 mm 4 mps 728 mmHg 86%
    06:00 +1°C° 0.3 mm 4 mps 728 mmHg 86%
    07:00 +3°C° 0.3 mm 4 mps 728 mmHg 87%
    08:00 +2°C° 0.5 mm 5 mps 728 mmHg 86%
    09:00 +3°C° 0.5 mm 5 mps 728 mmHg 86%
    10:00 +5°C° 0.5 mm 5 mps 728 mmHg 86%
    11:00 +5°C° 0.5 mm 5 mps 728 mmHg 86%
    12:00 +6°C° 0.5 mm 5 mps 728 mmHg 87%
    13:00 +6°C° 0.5 mm 5 mps 728 mmHg 87%
    14:00 +6°C° 0.4 mm 5 mps 729 mmHg 89%
    15:00 +5°C° 0.4 mm 4 mps 729 mmHg 92%
    16:00 +5°C° 0.4 mm 3 mps 730 mmHg 94%
    17:00 +4°C° 0.4 mm 3 mps 730 mmHg 94%
    18:00 +5°C° 0.4 mm 2 mps 731 mmHg 94%
    19:00 +5°C° 0.4 mm 1 mps 731 mmHg 94%
    20:00 +5°C° 0.2 mm 1 mps 732 mmHg 95%
    21:00 +5°C° 0.2 mm 1 mps 732 mmHg 95%
    22:00 +3°C° 0.2 mm 0 mps 732 mmHg 95%
    23:00 +3°C° 0.1 mm 0 mps 732 mmHg 95%

    22 November, Wednesday

    Time Temperature Precipitation Wind Pressure Humidity
    00:00 +4°C° 0.1 mm 1 mps 733 mmHg 95%
    01:00 +4°C° 0.1 mm 1 mps 733 mmHg 95%
    02:00 +5°C° 0.1 mm 1 mps 733 mmHg 95%
    03:00 +5°C° 0.1 mm 1 mps 732 mmHg 94%
    04:00 +5°C° 0.1 mm 1 mps 732 mmHg 94%
    05:00 +5°C° 0.1 mm 1 mps 732 mmHg 94%
    06:00 +5°C° 0.1 mm 2 mps 732 mmHg 94%
    07:00 +5°C° 0.1 mm 2 mps 732 mmHg 94%
    08:00 +6°C° 0.2 mm 2 mps 733 mmHg 92%
    09:00 +7°C° 0.2 mm 2 mps 733 mmHg 91%
    10:00 +7°C° 0.2 mm 3 mps 733 mmHg 89%
    11:00 +8°C° 0 mm 3 mps 733 mmHg 87%
    12:00 +8°C° 0 mm 3 mps 733 mmHg 84%
    13:00 +9°C° 0 mm 3 mps 734 mmHg 82%
    14:00 +8°C° 0 mm 3 mps 734 mmHg 84%
    15:00 +7°C° 0 mm 2 mps 734 mmHg 86%
    16:00 +6°C° 0 mm 2 mps 734 mmHg 88%
    17:00 +6°C° 0 mm 2 mps 735 mmHg 88%
    18:00 +6°C° 0 mm 2 mps 735 mmHg 88%
    19:00 +5°C° 0 mm 2 mps 735 mmHg 87%
    20:00 +5°C° 0 mm 2 mps 736 mmHg 87%
    21:00 +5°C° 0 mm 2 mps 736 mmHg 86%
    22:00 +5°C° 0 mm 2 mps 736 mmHg 86%
    23:00 +6°C° 0 mm 1 mps 736 mmHg 86%
    Show more